STARLINK-37212

Last updated on Sun Apr 12 2026 00:02:10 GMT+0000 (Coordinated Universal Time)

1 68566U 26070AA 26101.50002315 -.01156065 42326-3 -24546-2 0 9991 2 68566 53.1581 220.1630 0000948 54.4941 167.7299 15.98077174 2651
UTC large
Height (km)
Speed (km/s)
/
Latitude / Longitude
Inclination (degrees)
Orbital Period (minutes)
Azimuth
Elevation
Range (km)
Doppler Factor

Next 0 passes for location: London (51.5072 / 0.1276)

Sorry there are no passes over London.
STARLINK-37212